sat.trackr.live / text

‹ back to catalog

STARLINK-36327

NORAD 67738 · 2026-026T

PAYLOAD ACTIVE UNKNOWN

§ Identity

Operator
Country
US
Launch date
2026-02-11
Launch site
AFWTR
Launch vehicle
Mass (kg)
RCS (m²)

Purposes: comms

External: N2YO · Heavens-Above · Gunter

§ Orbital elements

Epoch: 2026-09-19T09:30:10.007424Z

Period
93.91 min
Inclination
97.2869°
Eccentricity
0.0000405
Mean motion
15.33454221 rev/d
Perigee alt
465.2 km
Apogee alt
465.8 km
Semi-major
6,843.7 km
B*
3.9539e-4
RAAN
314.2779°
Arg perigee
74.8524°
Mean anomaly
285.2763°
Rev number
3,381

§ Raw data

STARLINK-363271 67738U 26026T   26262.39594916  .00012715  00000+0  39539-3 0  99982 67738  97.2869 314.2779 0000405  74.8524 285.2763 15.33454221 33814

JSON: /api/v1/satellites/67738 · /tle

For live sub-satellite position, see the globe view (requires WebGL).

§ Visibility from observer

Set your observer location to see the next 7 days of passes ≥ 10°. The values pass through the URL so the page stays shareable.

No JS? Fill the form by hand. The geolocation button needs JavaScript.